Vertical_Velocity
-4 -4 -0 5 4 -3 -6 -3 -1 -0 -0 -0 -1 -0 0 1 2 1 0 1 -0 -1 0 -0 -1 0 1 -0 -2 1 -2 1
2 -1 -3 0 8 -1 -3 0 -4 -1 -1 -0 1 -2 -1 0 -0 2 2 -0 -0 1 -1 -1 1 -1 -1 -2 0 -1 2 -3
-0 -0 7 -8 8 6 -5 -4 1 -2 -2 -2 2 0 -2 -0 1 0 2 -1 1 1 -2 -1 1 -1 -1 0 0 1 2 -4
1 3 0 1 -5 5 3 -3 -2 -1 -4 -2 1 1 -1 -0 -0 1 1 -1 1 2 -0 -0 -2 0 0 -2 4 11 5 -9
1 5 1 3 -3 -2 5 3 -2 -3 -1 -4 0 1 1 -0 -1 -0 2 -2 0 1 2 2 -1 -1 2 2 -1 0 5 -2
2 4 7 1 1 -1 1 6 1 -2 -3 -1 -2 -0 -0 -0 -0 -1 1 2 0 1 2 1 0 1 -0 0 0 5 7 5
4 4 -1 8 -1 0 1 1 6 -0 -4 -2 -2 -1 -1 -1 0 -0 0 0 0 0 -0 1 0 0 -0 -1 1 -2 1 1
10 4 -0 2 4 5 0 2 3 5 0 -3 -2 -2 -1 -1 -0 1 -0 0 0 1 1 -1 0 -0 0 -1 1 -1 -1 11
14 7 5 -2 5 1 2 2 -1 3 3 2 -1 -2 -3 1 -2 1 0 -0 -0 -1 -0 -2 -3 -1 1 -1 0 1 -1 4
7 5 2 -4 1 7 2 -1 -4 1 2 2 2 -1 -3 -2 -1 -3 0 -0 0 -0 1 0 -1 -1 1 0 -0 -0 -0 -0
1 5 2 7 -3 3 4 4 -0 -3 3 2 2 0 0 -2 -2 -2 -2 -1 -0 -1 1 3 1 0 1 1 -1 1 -1 0
8 10 12 6 -2 1 2 -1 -2 -2 -4 0 3 1 1 1 0 -1 -2 -1 -0 -0 -0 2 2 1 0 0 -1 -0 -1 1
11 8 11 6 1 -5 -3 -2 -2 -2 -2 -4 2 3 1 2 2 0 0 1 2 0 -1 -0 2 4 0 -0 -1 0 0 -0
-3 7 9 3 5 10 6 6 5 3 5 -2 3 3 -0 2 2 1 -1 0 3 1 -0 -0 -1 2 -2 0 -3 0 -2 -0
7 -7 7 8 11 1 -2 6 7 -3 -3 0 -2 2 1 2 4 -0 0 -2 2 0 0 -1 -0 1 1 -1 -3 -7 6 0
-3 -1 6 1 -2 3 6 1 6 8 6 7 -2 -0 8 -1 1 0 1 -1 -1 1 3 2 -0 -1 -3 -0 2 -1 -4 -3
-2 3 3 3 -1 -1 -0 1 7 -3 3 10 9 10 0 -2 -2 1 0 -0 1 2 3 1 -0 -2 -0 1 1 -1 1 1
4 0 4 4 6 0 -0 3 8 -4 2 0 -4 3 -1 -5 -1 -0 1 0 1 3 2 1 1 2 0 1 -1 -1 5 0
-5 -0 -2 -4 4 0 1 2 4 2 0 -3 -30 -14 -4 1 3 -2 -0 0 0 0 -0 -1 1 -1 3 2 -1 -2 5 9
3 5 4 3 -4 0 7 -1 1 -4 5 -1 -3 -5 -2 4 3 -1 -0 0 1 1 -3 -1 -1 1 -1 0 0 -3 4 1
Height
3124 3125 3126 3126 3127 3127 3128 3128 3129 3129 3128 3129 3130 3132 3133 3135 3137 3139 3140 3141 3143 3144 3146 3148 3148 3148 3148 3150 3152 3153 3155 3156
3120 3122 3124 3125 3125 3125 3126 3127 3127 3127 3127 3128 3129 3130 3132 3133 3135 3137 3138 3140 3142 3143 3145 3146 3147 3147 3148 3148 3149 3151 3153 3155
3117 3119 3121 3123 3124 3124 3124 3125 3126 3126 3126 3126 3127 3129 3131 3132 3134 3136 3137 3138 3140 3142 3144 3145 3145 3145 3146 3147 3147 3148 3150 3152
3114 3116 3118 3120 3122 3122 3122 3123 3124 3125 3125 3125 3126 3127 3129 3130 3131 3133 3135 3136 3137 3140 3141 3143 3144 3144 3144 3145 3146 3146 3146 3148
3111 3113 3114 3117 3119 3120 3121 3121 3122 3123 3123 3124 3125 3126 3128 3129 3130 3131 3133 3134 3136 3138 3139 3141 3142 3143 3143 3143 3144 3144 3145 3145
3107 3110 3111 3113 3115 3117 3119 3120 3120 3121 3122 3123 3124 3124 3126 3128 3128 3130 3131 3133 3135 3136 3137 3138 3140 3141 3142 3142 3143 3143 3143 3145
3103 3106 3109 3109 3111 3113 3116 3117 3118 3119 3120 3121 3122 3123 3124 3126 3127 3128 3129 3130 3133 3134 3135 3136 3137 3138 3140 3140 3140 3141 3142 3142
3099 3101 3104 3106 3107 3109 3112 3114 3115 3116 3118 3119 3120 3121 3122 3123 3125 3126 3127 3129 3130 3131 3132 3133 3134 3135 3136 3137 3138 3139 3140 3140
3094 3097 3099 3101 3102 3104 3106 3110 3112 3114 3115 3117 3118 3119 3120 3121 3123 3124 3125 3126 3127 3128 3129 3129 3130 3131 3132 3133 3135 3135 3136 3137
3087 3090 3092 3094 3096 3096 3099 3104 3108 3110 3112 3114 3115 3116 3118 3119 3120 3122 3122 3123 3124 3125 3125 3125 3126 3128 3129 3129 3130 3131 3132 3133
3075 3081 3084 3088 3089 3091 3094 3098 3102 3105 3107 3110 3112 3113 3114 3116 3117 3119 3119 3120 3121 3121 3121 3121 3122 3123 3124 3124 3125 3126 3127 3128
3067 3073 3078 3080 3083 3087 3088 3092 3096 3100 3103 3105 3107 3109 3111 3112 3113 3115 3116 3117 3117 3118 3118 3117 3118 3118 3119 3119 3120 3120 3122 3123
3055 3063 3069 3072 3075 3079 3083 3086 3091 3094 3098 3100 3102 3104 3106 3108 3109 3111 3112 3113 3113 3113 3114 3113 3113 3114 3113 3113 3114 3115 3117 3118
3045 3053 3059 3065 3070 3074 3077 3082 3085 3089 3092 3095 3097 3099 3101 3102 3104 3106 3107 3108 3109 3109 3110 3110 3108 3108 3108 3108 3108 3110 3109 3112
3037 3046 3052 3057 3061 3064 3069 3074 3078 3081 3086 3089 3092 3094 3096 3097 3099 3100 3101 3102 3103 3104 3105 3104 3104 3103 3103 3103 3102 3101 3104 3106
3031 3038 3044 3048 3052 3055 3060 3066 3070 3076 3080 3083 3086 3088 3090 3091 3092 3094 3094 3095 3096 3098 3099 3099 3098 3097 3097 3097 3097 3097 3097 3099
3023 3029 3036 3040 3045 3049 3054 3058 3063 3068 3072 3076 3079 3081 3083 3085 3085 3086 3087 3088 3090 3091 3092 3092 3092 3091 3090 3091 3091 3092 3091 3091
3015 3022 3028 3033 3036 3041 3046 3051 3056 3059 3064 3067 3071 3075 3077 3079 3078 3079 3080 3081 3082 3084 3085 3085 3085 3085 3084 3083 3084 3084 3085 3085
3006 3013 3019 3025 3028 3033 3039 3043 3048 3053 3056 3060 3064 3067 3069 3071 3072 3072 3073 3074 3075 3076 3078 3078 3078 3077 3077 3076 3076 3076 3077 3078
2999 3005 3010 3016 3020 3025 3030 3035 3041 3045 3049 3053 3055 3058 3061 3064 3065 3065 3066 3067 3067 3068 3069 3070 3070 3069 3068 3068 3068 3069 3069 3068